#timestamp,LO_Frequency,Hit,StdDev 
1526911215.7,286047001.5,N
1526911235.6,286047001.5,N
1526911255.4,286047002.7,N
1526911275.2,286046999.7,N
1526911295.1,286047002.3,N
1526911296.0,286047002.3,N
1526911315.8,286047002.3,N
1526911335.7,286047001.3,N
1526911355.5,286047003.7,N
1526911375.3,286047001.9,N
1526911395.2,286047001.8,N
1526911415.0,286047001.6,N
1526911415.9,286047001.6,N
1526911435.8,286047001.5,N
1526911455.6,286047002.1,N
1526911475.4,286047004.0,Y
1526911495.3,286046999.9,P
1526911515.1,286047002.5,N
1526911535.9,286047001.4,N
1526911555.7,286047003.6,Y
1526911575.5,286047002.0,P
1526911595.4,286047003.5,P
1526911615.2,286047004.0,P
1526911635.1,286047002.7,N
1526911636.0,286047002.7,N
1526911655.8,286047000.0,N
1526911675.6,286047001.0,N
1526911695.5,286046998.6,N
1526911715.3,286046996.7,N
1526911735.1,286046996.6,N
1526911755.9,286046999.3,N
1526911775.7,286046997.1,N
1526911795.6,286046995.3,N
1526911815.4,286046997.2,N
1526911835.2,286046997.7,N
1526911855.1,286046997.2,N
1526911856.0,286046997.2,N
1526911875.8,286046996.9,N
1526911895.6,286046999.2,N
1526911915.5,286046999.2,N
1526911935.3,286046996.9,N
1526911955.2,286046995.1,N
1526911975.9,286046995.5,N
1526911995.7,286046997.2,N
1526912015.6,286046998.9,N
1526912035.4,286047000.6,N
1526912055.2,286047002.7,N
1526912075.1,286047000.2,N
1526912076.0,286047000.2,N
1526912095.8,286047001.0,N
1526912115.7,286046997.0,N
1526912135.5,286046996.8,N
1526912155.3,286046999.3,N
1526912175.2,286046998.8,N
1526912195.0,286047000.8,N
1526912195.9,286047000.8,N
1526912215.8,286047000.7,N
1526912235.6,286046998.7,N
1526912255.4,286046999.3,N
1526912275.3,286046999.2,N
1526912295.1,286047001.2,N
1526912315.8,286047001.1,N
1526912335.7,286046998.2,N
1526912355.5,286047000.7,N
1526912375.4,286047000.7,N
1526912395.2,286047001.2,N
1526912415.0,286046998.6,N
1526912415.9,286046998.6,N
1526912435.8,286046996.7,N
1526912455.6,286046996.9,N
1526912475.4,286046997.0,N
1526912495.3,286046997.0,N
1526912515.1,286046996.5,N
1526912535.9,286046998.4,N
1526912555.7,286046998.6,N
1526912575.5,286046998.7,N
1526912595.4,286046999.0,N
1526912615.2,286046999.0,N
1526912635.0,286047000.7,N
1526912635.9,286047000.7,N
1526912655.8,286046998.1,N
1526912675.6,286046998.9,N
1526912695.5,286046999.1,N
1526912715.3,286046998.4,N
1526912735.1,286046998.7,N
1526912755.9,286046998.2,N
1526912775.7,286047001.0,N
1526912795.5,286047002.7,N
1526912815.4,286047001.2,N
1526912835.2,286046996.5,N
1526912855.1,286046999.2,N
1526912856.0,286046999.2,N
1526912875.8,286046998.1,N
1526912895.6,286046998.2,N
1526912915.5,286047000.8,N
1526912935.3,286046998.5,N
1526912955.1,286046997.0,N
1526912975.9,286046997.8,N
1526912995.7,286046994.9,Y
1526913015.6,286046999.5,P
1526913035.4,286046997.0,P
1526913055.2,286046996.5,P
1526913075.1,286046998.8,N
1526913076.0,286046998.8,N
1526913095.8,286047000.9,N
1526913115.6,286046998.3,N
1526913135.5,286046998.1,N
1526913155.3,286047000.4,N
1526913175.2,286046999.7,N
1526913195.9,286047002.6,N
1526913215.7,286047001.6,N
1526913235.6,286047003.8,N
1526913255.4,286046999.7,N
1526913275.3,286047000.3,N
1526913295.1,286047000.2,N
1526913296.0,286047000.2,N
1526913315.8,286047001.0,N
1526913335.7,286047000.7,N
1526913355.5,286047002.8,N
1526913375.3,286047002.0,N
1526913395.2,286047002.6,N
1526913415.0,286047000.6,N
1526913415.9,286047000.6,N
1526913435.8,286047002.5,N
1526913455.6,286047002.5,N
1526913475.4,286047000.3,N
1526913495.3,286047000.5,N
1526913515.1,286047000.0,N
1526913535.8,286047000.9,N
1526913555.7,286047000.3,N
1526913575.5,286046998.2,N
1526913595.4,286046998.3,N
1526913615.2,286047000.4,N
1526913635.0,286046999.8,N
1526913635.9,286046999.8,N
1526913655.8,286047002.2,N
1526913675.6,286047000.9,N
1526913695.4,286047000.8,N
1526913715.3,286047000.0,N
1526913735.1,286047001.0,N
1526913755.9,286047001.0,N
1526913775.7,286046998.5,N
1526913795.5,286046998.5,N
1526913815.4,286047000.2,N
1526913835.2,286047000.6,N
1526913855.0,286046998.3,N
1526913856.0,286046998.3,N
1526913875.8,286046998.1,N
1526913895.6,286046998.3,N
1526913915.5,286046999.3,N
1526913935.3,286047000.9,N
1526913955.1,286047001.9,N
1526913975.9,286047003.9,N
1526913995.7,286047005.7,Y
1526914015.6,286047005.7,P
1526914035.4,286047003.8,N
1526914055.2,286047003.1,N
1526914075.1,286047005.5,N
1526914076.0,286047005.5,N
1526914095.8,286047005.4,N
1526914115.6,286047005.2,N
1526914135.5,286047007.2,Y
1526914155.3,286047002.8,P
1526914175.2,286046999.8,N
1526914195.9,286047000.4,N
1526914215.7,286046999.7,N
1526914235.6,286046999.8,N
1526914255.4,286047002.7,N
1526914275.2,286047000.5,N
1526914295.1,286047000.7,N
1526914296.0,286047000.7,N
1526914315.8,286046999.5,N
1526914335.7,286046996.5,N
1526914355.5,286046999.4,N
1526914375.3,286046999.0,N
1526914395.2,286046997.6,N
1526914415.0,286046996.6,N
1526914415.9,286046996.6,N
1526914435.8,286046998.2,N
1526914455.6,286047001.2,N
1526914475.4,286046998.4,N
1526914495.3,286046998.2,N
1526914515.1,286047000.5,N
1526914535.9,286047000.7,N
1526914555.7,286046999.3,N
1526914575.5,286046996.5,N
1526914595.4,286046997.4,N
1526914615.2,286046997.2,N
1526914635.0,286046997.8,N
1526914635.9,286046997.8,N
1526914655.8,286046996.9,N
1526914675.6,286046997.9,N
1526914695.5,286046997.9,N
1526914715.3,286046995.0,Y
1526914735.1,286046996.7,P
1526914755.9,286046997.2,N
1526914775.7,286046996.7,P
1526914795.5,286046995.6,Y
